Regional Weather Roundup
Issued by NWS

Home | Current Version | Previous Version | Text Only | Print | Product List | Glossary On
Versions: 1 2 3 4 5 6 7 8 9 10 11 12 13 14 15 16 17 18 19 20 21 22 23 24 25 26 27 28 29 30 31 32 33 34 35 36 37 38 39 40 41 42 43 44 45 46 47 48 49 50
000
ASUS43 KLMK 201610
RWRKY
KENTUCKY REGIONAL WEATHER ROUNDUP
NATIONAL WEATHER SERVICE LOUISVILLE KY
1100 AM EST MON FEB 20 2017

NOTE "FAIR" INDICATES FEW OR NO CLOUDS BELOW 12,000 FEET
WITH NO SIGNIFICANT WEATHER AND/OR OBSTRUCTIONS TO VISIBILITY.

KYZ001>023-026-027-061>063-070>075-201700-
WESTERN AND SOUTH CENTRAL KENTUCKY

CITY           SKY/WX    TMP DP  RH WIND       PRES   REMARKS
PADUCAH        PTSUNNY   64  52  64 SE8       30.12R
HENDERSON      MOSUNNY   57  52  82 SE7       30.15S
OWENSBORO      MOSUNNY   58  51  78 SE3       30.18R
HOPKINSVILLE   MOSUNNY   61  51  70 S8        30.15S
BOWLING GREEN  PTSUNNY   57  51  80 CALM      30.18F
GLASGOW        MOSUNNY   62  50  66 SE3       30.19S
$$

KYZ024-025-028>034-038-045-046-053-201700-
NORTH CENTRAL KENTUCKY

CITY           SKY/WX    TMP DP  RH WIND       PRES   REMARKS
LOUISVILLE/SDF CLOUDY    51  46  83 W3        30.21R HAZE
LOUISVILLE/LOU PTSUNNY   54  47  77 CALM      30.21S
FORT KNOX      CLOUDY    48  48 100 E5        30.18R
$$

KYZ035>037-039>044-047>052-055>060-089>105-201700-
NORTHEAST KENTUCKY

CITY           SKY/WX    TMP DP  RH WIND       PRES   REMARKS
LEXINGTON      CLOUDY    60  48  64 SE6       30.21F
COVINGTON      PTSUNNY   51  48  89 SE7       30.22S
FRANKFORT      MOSUNNY   51  45  79 E3        30.20F
$$

KYZ054-064>069-076>088-106>120-201700-
SOUTHEAST KENTUCKY

CITY           SKY/WX    TMP DP  RH WIND       PRES   REMARKS
JACKSON        SUNNY     59  45  59 VRB3      30.24S
LONDON         SUNNY     59  46  62 CALM      30.23S
SOMERSET       CLOUDY    59  46  63 CALM      30.22F
MIDDLESBORO    CLOUDY    43  43 100 CALM      30.26S FOG
MONTICELLO     SUNNY     63  49  60 SE5       30.22F
$$





USA.gov is the U.S. government's official web portal to all federal, state and local government web resources and services.